5XCMG HTMW-HKNW

Flight info

Callsign 5XCMG
Flight time 0h 48m
Altitude 23000
Route UVDIX DCT PARIN DCT GV
Aircraft DH8D/M-SDE2E3FGRY/H

Departure

Time 2026-05-05 13:02
Airport Mwanza International Airport (HTMW)

Arrival

Time 2026-05-05 13:50
Airport Nairobi Wilson Airport (HKNW)
Time Latitude Longitude Altitude Speed Heading
2026-05-05 12:58 -2.44404 32.92487 3765 ft 0 kts 30°
2026-05-05 12:59 -2.44402 32.92489 3765 ft 2 kts 28°
2026-05-05 12:59 -2.44378 32.92499 3765 ft 6 kts 14°
2026-05-05 13:00 -2.44260 32.92427 3763 ft 14 kts 327°
2026-05-05 13:00 -2.44158 32.92432 3762 ft 17 kts 25°
2026-05-05 13:01 -2.44083 32.92532 3763 ft 18 kts 115°
2026-05-05 13:01 -2.44258 32.92888 3771 ft 99 kts 117°
2026-05-05 13:01 -2.44669 32.93710 3787 ft 161 kts 115°
2026-05-05 13:01 -2.45233 32.94842 3847 ft 196 kts 116°
2026-05-05 13:02 -2.45850 32.96100 4209 ft 207 kts 115°
2026-05-05 13:02 -2.46510 32.97406 4605 ft 214 kts 116°
2026-05-05 13:02 -2.47173 32.98710 5211 ft 210 kts 115°
2026-05-05 13:02 -2.47752 33.00040 5705 ft 212 kts 108°
2026-05-05 13:03 -2.48160 33.01437 6294 ft 208 kts 101°
2026-05-05 13:03 -2.48367 33.02845 6835 ft 208 kts 92°
2026-05-05 13:03 -2.48314 33.04325 7232 ft 223 kts 81°
2026-05-05 13:03 -2.47989 33.05920 7714 ft 237 kts 73°
2026-05-05 13:04 -2.47584 33.07491 8558 ft 234 kts 75°
2026-05-05 13:04 -2.47194 33.09011 9545 ft 225 kts 74°
2026-05-05 13:04 -2.46782 33.10461 10491 ft 218 kts 74°
2026-05-05 13:04 -2.46429 33.11924 11284 ft 219 kts 76°
2026-05-05 13:05 -2.46075 33.13393 12029 ft 220 kts 76°
2026-05-05 13:05 -2.45716 33.14870 12738 ft 222 kts 76°
2026-05-05 13:05 -2.45354 33.16376 13429 ft 224 kts 76°
2026-05-05 13:05 -2.44974 33.17880 14091 ft 226 kts 73°
2026-05-05 13:06 -2.44548 33.19387 14727 ft 228 kts 74°
2026-05-05 13:06 -2.44135 33.20895 15428 ft 228 kts 73°
2026-05-05 13:06 -2.43709 33.22454 15841 ft 240 kts 73°
2026-05-05 13:06 -2.43269 33.24070 16322 ft 245 kts 73°
2026-05-05 13:07 -2.42824 33.25713 16832 ft 248 kts 73°
2026-05-05 13:07 -2.42370 33.27386 17352 ft 250 kts 73°
2026-05-05 13:07 -2.41916 33.29058 17849 ft 252 kts 73°
2026-05-05 13:07 -2.41459 33.30745 18325 ft 254 kts 73°
2026-05-05 13:08 -2.40998 33.32447 18782 ft 256 kts 72°
2026-05-05 13:08 -2.40532 33.34163 19221 ft 259 kts 72°
2026-05-05 13:08 -2.40062 33.35896 19646 ft 261 kts 72°
2026-05-05 13:08 -2.39588 33.37645 20055 ft 263 kts 72°
2026-05-05 13:09 -2.39106 33.39422 20453 ft 265 kts 72°
2026-05-05 13:09 -2.38623 33.41200 20834 ft 268 kts 72°
2026-05-05 13:09 -2.38137 33.42994 21202 ft 270 kts 72°
2026-05-05 13:09 -2.37646 33.44805 21557 ft 272 kts 72°
2026-05-05 13:10 -2.37152 33.46626 21900 ft 274 kts 71°
2026-05-05 13:10 -2.36653 33.48464 22231 ft 276 kts 71°
2026-05-05 13:10 -2.36150 33.50319 22551 ft 278 kts 71°
2026-05-05 13:10 -2.35640 33.52196 22862 ft 281 kts 71°
2026-05-05 13:11 -2.35130 33.54076 23160 ft 283 kts 71°
2026-05-05 13:11 -2.34616 33.55972 23449 ft 285 kts 71°
2026-05-05 13:11 -2.34098 33.57880 23728 ft 287 kts 71°
2026-05-05 13:11 -2.33578 33.59798 23998 ft 289 kts 71°
2026-05-05 13:12 -2.33053 33.61731 24260 ft 290 kts 71°
2026-05-05 13:12 -2.32525 33.63678 24513 ft 292 kts 71°
2026-05-05 13:12 -2.31989 33.65652 24760 ft 294 kts 71°
2026-05-05 13:12 -2.31454 33.67622 24971 ft 297 kts 71°
2026-05-05 13:13 -2.30906 33.69639 25004 ft 306 kts 71°
2026-05-05 13:13 -2.30341 33.71718 25013 ft 315 kts 71°
2026-05-05 13:13 -2.29762 33.73849 25014 ft 323 kts 71°
2026-05-05 13:13 -2.29171 33.76030 25012 ft 330 kts 71°
2026-05-05 13:14 -2.28566 33.78257 25011 ft 336 kts 71°
2026-05-05 13:14 -2.27949 33.80534 25009 ft 340 kts 72°
2026-05-05 13:14 -2.27328 33.82821 25008 ft 344 kts 72°
2026-05-05 13:14 -2.26699 33.85138 25007 ft 348 kts 72°
2026-05-05 13:15 -2.26064 33.87479 25006 ft 351 kts 72°
2026-05-05 13:15 -2.25424 33.89835 25006 ft 353 kts 72°
2026-05-05 13:15 -2.24782 33.92200 25005 ft 355 kts 72°
2026-05-05 13:15 -2.24136 33.94579 25005 ft 357 kts 72°
2026-05-05 13:16 -2.23482 33.96986 25004 ft 358 kts 72°
2026-05-05 13:16 -2.22831 33.99382 25004 ft 359 kts 72°
2026-05-05 13:16 -2.22178 34.01787 25004 ft 360 kts 72°
2026-05-05 13:16 -2.21524 34.04196 25004 ft 361 kts 72°
2026-05-05 13:17 -2.20868 34.06608 25003 ft 362 kts 72°
2026-05-05 13:17 -2.20211 34.09029 25003 ft 362 kts 72°
2026-05-05 13:17 -2.19552 34.11452 25003 ft 363 kts 72°
2026-05-05 13:17 -2.18889 34.13893 25003 ft 363 kts 72°
2026-05-05 13:18 -2.18229 34.16320 25003 ft 363 kts 72°
2026-05-05 13:18 -2.17570 34.18745 25003 ft 364 kts 72°
2026-05-05 13:18 -2.16910 34.21174 25003 ft 364 kts 72°
2026-05-05 13:18 -2.16250 34.23603 25003 ft 364 kts 72°
2026-05-05 13:19 -2.15588 34.26037 25003 ft 364 kts 72°
2026-05-05 13:19 -2.14927 34.28470 25003 ft 364 kts 72°
2026-05-05 13:19 -2.14261 34.30918 25003 ft 364 kts 72°
2026-05-05 13:19 -2.13599 34.33352 25003 ft 364 kts 72°
2026-05-05 13:20 -2.12937 34.35789 25003 ft 364 kts 72°
2026-05-05 13:20 -2.12274 34.38225 25003 ft 365 kts 72°
2026-05-05 13:20 -2.11612 34.40658 25003 ft 365 kts 72°
2026-05-05 13:20 -2.10949 34.43099 25003 ft 365 kts 72°
2026-05-05 13:21 -2.10287 34.45531 25003 ft 365 kts 72°
2026-05-05 13:21 -2.09619 34.47988 25003 ft 365 kts 72°
2026-05-05 13:21 -2.08954 34.50430 25014 ft 364 kts 72°
2026-05-05 13:21 -2.08292 34.52866 25022 ft 364 kts 72°
2026-05-05 13:22 -2.07628 34.55307 25023 ft 365 kts 72°
2026-05-05 13:22 -2.06962 34.57752 25023 ft 365 kts 72°
2026-05-05 13:22 -2.06300 34.60188 25024 ft 365 kts 72°
2026-05-05 13:22 -2.05635 34.62631 25024 ft 365 kts 72°
2026-05-05 13:23 -2.04969 34.65077 25024 ft 365 kts 72°
2026-05-05 13:23 -2.04344 34.67375 25021 ft 365 kts 72°
2026-05-05 13:23 -2.03651 34.69920 25021 ft 365 kts 72°
2026-05-05 13:23 -2.02982 34.72379 25021 ft 365 kts 72°
2026-05-05 13:24 -2.02315 34.74829 25021 ft 365 kts 72°
2026-05-05 13:24 -2.01649 34.77273 25021 ft 365 kts 72°
2026-05-05 13:24 -2.00986 34.79709 25021 ft 365 kts 72°
2026-05-05 13:24 -2.00315 34.82174 25021 ft 365 kts 72°
2026-05-05 13:25 -1.99650 34.84619 25021 ft 365 kts 72°
2026-05-05 13:25 -1.98985 34.87060 25021 ft 365 kts 72°
2026-05-05 13:25 -1.98318 34.89509 25021 ft 365 kts 72°
2026-05-05 13:25 -1.97653 34.91951 25021 ft 365 kts 71°
2026-05-05 13:26 -1.96987 34.94396 25021 ft 365 kts 71°
2026-05-05 13:26 -1.96320 34.96845 25021 ft 365 kts 71°
2026-05-05 13:26 -1.95650 34.99307 25021 ft 366 kts 71°
2026-05-05 13:26 -1.94984 35.01752 25021 ft 366 kts 71°
2026-05-05 13:27 -1.94317 35.04199 25021 ft 366 kts 71°
2026-05-05 13:27 -1.93649 35.06650 25021 ft 366 kts 71°
2026-05-05 13:27 -1.92983 35.09097 25021 ft 366 kts 71°
2026-05-05 13:27 -1.92315 35.11547 25022 ft 366 kts 71°
2026-05-05 13:28 -1.91647 35.13997 25022 ft 366 kts 71°
2026-05-05 13:28 -1.90973 35.16471 25022 ft 366 kts 71°
2026-05-05 13:28 -1.90307 35.18915 25022 ft 366 kts 71°
2026-05-05 13:28 -1.89638 35.21371 25025 ft 366 kts 71°
2026-05-05 13:29 -1.88967 35.23832 25026 ft 367 kts 71°
2026-05-05 13:29 -1.88298 35.26286 25027 ft 367 kts 71°
2026-05-05 13:29 -1.87628 35.28745 25027 ft 367 kts 71°
2026-05-05 13:29 -1.86958 35.31203 25027 ft 367 kts 71°
2026-05-05 13:30 -1.86284 35.33674 25027 ft 367 kts 71°
2026-05-05 13:30 -1.85614 35.36133 25027 ft 367 kts 71°
2026-05-05 13:30 -1.84943 35.38592 25027 ft 367 kts 71°
2026-05-05 13:30 -1.84273 35.41050 25027 ft 368 kts 71°
2026-05-05 13:31 -1.83602 35.43513 25027 ft 368 kts 71°
2026-05-05 13:31 -1.82930 35.45975 25027 ft 368 kts 71°
2026-05-05 13:31 -1.82254 35.48454 25027 ft 368 kts 71°
2026-05-05 13:31 -1.81584 35.50914 25027 ft 368 kts 71°
2026-05-05 13:32 -1.80913 35.53372 25027 ft 368 kts 71°
2026-05-05 13:32 -1.80240 35.55838 25027 ft 368 kts 71°
2026-05-05 13:32 -1.79568 35.58304 25027 ft 368 kts 71°
2026-05-05 13:32 -1.78897 35.60763 25031 ft 368 kts 71°
2026-05-05 13:33 -1.78226 35.63224 25036 ft 368 kts 71°
2026-05-05 13:33 -1.77553 35.65692 25040 ft 368 kts 71°
2026-05-05 13:33 -1.76872 35.68188 25040 ft 368 kts 71°
2026-05-05 13:33 -1.76201 35.70645 25041 ft 368 kts 71°
2026-05-05 13:34 -1.75530 35.73105 25041 ft 368 kts 71°
2026-05-05 13:34 -1.74859 35.75565 25042 ft 368 kts 71°
2026-05-05 13:34 -1.74188 35.78025 25043 ft 368 kts 71°
2026-05-05 13:34 -1.73517 35.80482 25044 ft 368 kts 71°
2026-05-05 13:35 -1.72844 35.82948 24920 ft 372 kts 71°
2026-05-05 13:35 -1.72158 35.85468 24457 ft 373 kts 71°
2026-05-05 13:35 -1.71483 35.87940 24005 ft 367 kts 71°
2026-05-05 13:35 -1.70818 35.90372 23553 ft 362 kts 71°
2026-05-05 13:36 -1.70161 35.92776 23100 ft 357 kts 71°
2026-05-05 13:36 -1.69515 35.95142 22648 ft 352 kts 71°
2026-05-05 13:36 -1.68880 35.97469 22199 ft 348 kts 72°
2026-05-05 13:36 -1.68248 35.99781 21747 ft 344 kts 72°
2026-05-05 13:37 -1.67619 36.02086 21292 ft 340 kts 72°
2026-05-05 13:37 -1.67003 36.04342 20842 ft 337 kts 72°
2026-05-05 13:37 -1.66391 36.06582 20391 ft 333 kts 72°
2026-05-05 13:37 -1.65785 36.08798 19940 ft 330 kts 72°
2026-05-05 13:38 -1.65187 36.10989 19491 ft 327 kts 72°
2026-05-05 13:38 -1.64591 36.13169 19040 ft 324 kts 72°
2026-05-05 13:38 -1.64003 36.15322 18591 ft 322 kts 72°
2026-05-05 13:38 -1.63414 36.17480 18137 ft 319 kts 72°
2026-05-05 13:39 -1.62833 36.19607 17687 ft 317 kts 73°
2026-05-05 13:39 -1.62252 36.21732 17241 ft 319 kts 73°
2026-05-05 13:39 -1.61668 36.23872 16801 ft 322 kts 73°
2026-05-05 13:39 -1.61077 36.26036 16359 ft 325 kts 73°
2026-05-05 13:40 -1.60482 36.28213 15917 ft 327 kts 73°
2026-05-05 13:40 -1.59883 36.30407 15472 ft 329 kts 73°
2026-05-05 13:40 -1.59280 36.32614 15022 ft 328 kts 73°
2026-05-05 13:40 -1.58681 36.34809 14570 ft 326 kts 73°
2026-05-05 13:41 -1.58087 36.36982 14119 ft 324 kts 74°
2026-05-05 13:41 -1.57497 36.39143 13668 ft 323 kts 74°
2026-05-05 13:41 -1.56908 36.41296 13217 ft 321 kts 74°
2026-05-05 13:41 -1.56323 36.43437 12766 ft 320 kts 74°
2026-05-05 13:42 -1.55737 36.45581 12320 ft 319 kts 74°
2026-05-05 13:42 -1.55156 36.47710 11984 ft 314 kts 74°
2026-05-05 13:42 -1.54586 36.49795 11651 ft 310 kts 74°
2026-05-05 13:42 -1.54026 36.51848 11319 ft 306 kts 74°
2026-05-05 13:43 -1.53470 36.53882 10986 ft 302 kts 74°
2026-05-05 13:43 -1.52946 36.55798 10670 ft 299 kts 74°
2026-05-05 13:43 -1.52401 36.57784 10340 ft 297 kts 74°
2026-05-05 13:43 -1.51853 36.59754 10009 ft 294 kts 74°
2026-05-05 13:44 -1.51299 36.61726 9676 ft 292 kts 74°
2026-05-05 13:44 -1.50747 36.63666 9351 ft 290 kts 74°
2026-05-05 13:44 -1.50391 36.65579 9266 ft 279 kts 81°
2026-05-05 13:44 -1.49817 36.67392 9257 ft 266 kts 66°
2026-05-05 13:45 -1.48995 36.69001 9249 ft 255 kts 60°
2026-05-05 13:45 -1.48085 36.70476 9246 ft 245 kts 57°
2026-05-05 13:45 -1.47152 36.71859 9246 ft 236 kts 56°
2026-05-05 13:45 -1.46222 36.73181 9248 ft 229 kts 55°
2026-05-05 13:46 -1.45302 36.74462 9254 ft 226 kts 54°
2026-05-05 13:46 -1.44385 36.75727 9174 ft 228 kts 54°
2026-05-05 13:46 -1.43437 36.77031 8896 ft 236 kts 54°
2026-05-05 13:46 -1.42465 36.78363 8598 ft 240 kts 54°
2026-05-05 13:47 -1.41476 36.79716 8284 ft 244 kts 54°
2026-05-05 13:47 -1.40472 36.81090 7956 ft 248 kts 54°
2026-05-05 13:47 -1.39462 36.82473 7613 ft 244 kts 54°
2026-05-05 13:47 -1.38482 36.83810 7274 ft 233 kts 54°
2026-05-05 13:48 -1.37559 36.85071 6983 ft 216 kts 54°
2026-05-05 13:48 -1.36585 36.86092 6706 ft 195 kts 26°
2026-05-05 13:48 -1.35418 36.86121 6505 ft 174 kts 338°
2026-05-05 13:48 -1.34700 36.85223 6003 ft 169 kts 296°
2026-05-05 13:49 -1.34256 36.84175 5888 ft 161 kts 290°
2026-05-05 13:49 -1.33836 36.83187 5776 ft 143 kts 305°
2026-05-05 13:49 -1.33209 36.82489 5532 ft 128 kts 321°
2026-05-05 13:49 -1.32616 36.81907 5466 ft 111 kts 318°
2026-05-05 13:50 -1.32177 36.81461 5479 ft 61 kts 316°
2026-05-05 13:50 -1.32021 36.81303 5499 ft 17 kts 314°
2026-05-05 13:50 -1.31960 36.81290 5502 ft 10 kts 51°
2026-05-05 13:50 -1.31922 36.81348 5501 ft 10 kts 50°
2026-05-05 13:51 -1.31880 36.81376 5503 ft 4 kts 358°
2026-05-05 13:51 -1.31879 36.81376 5503 ft 0 kts 356°
2026-05-05 14:05 -1.31875 36.81463 5497 ft 0 kts 298°